Showing default

JILIN-01-04, 43022

Orbit data source: Space-Track

JILIN-01-04, 43022 is a payload satellite owned by Changguang WJ (CN) in SSO that was launched on Tue, 21 Nov 2017 UTC via a CHANG ZHENG 6 launch vehicle from the Taiyaun Space Center, China (TSC). Payload-class satellites include a variety of spacecraft equipped with specific instruments for various scientific and technological missions. These include communications satellites like Starlink; space stations such as the ISS; scientific satellites like the Hubble; Earth observation satellites from companies like Planet Labs, Umbra, and HawkEye 360; GPS; miniature CubeSats for education and research; and military/defense satellites.

Loading next visibility...
Identifier
43022, 2017-074A
Orbit
SSO
Last TLE update
10 hours ago
Origin
Manufacturer
HARB/CIOMP
Mission
Operational Commercial Imaging
Bus & Motor
JL-1, Unknown motor
Mass
95 kg wet, 95 kg dry
Launch date (UTC)
2017-11-21 (7 years ago)
Launch vehicle
CHANG ZHENG 6
Launch site
Taiyaun Space Center, China (TSC)
Object type
Payload
Rocket body
Debris
Shape & HBR
Box + 2 Pan, 1.5 m
Radar Cross Section
2.000 m², Medium (>0.1 m² and < 1m²)

Expand to show TLE details & history

TLE from 10 hours ago
0 JILIN-01-04
1 43022U 17074A   25132.89563977  .00009421  00000-0  31313-3 0  9997
2 43022  97.4769 230.8284 0005619 173.2174 186.9144 15.31393042412807
Epoch: 2025-05-12T21:29Z
Definitive object data (Epoch: 2025-05-12T21:29:43.276Z)
Latitude
-0.00002°
Longitude
37.49593°
Altitude
478.581 km
Speed
7.624 km/s
True Right ascension
15h 23m 18s
True Declination
0° 00' 00"
Sunlit
Object was in full shadow at TLE epoch
Visualization TLE readout
Latitude
-22.3683°
Longitude
-145.15062°
Altitude
476.869 km
Speed
7.628 km/s
Apparent Right ascension
03h 38m 30s
Apparent Declination
-30° 52' 13"
Sunlit
Object is in daylight
Visualization observer readout
Local Sidereal Time
16:11:56
Azimuth
39.493° NE
Elevation
-78.688°
Doppler factor
1
Orbital elements
Apogee altitude
472.456 km
Perigee altitude
464.762 km
Semi-major axis
6,846.746 km
Eccentricity
0.0005619
Inclination
97.4769°
RAAN
230.8284°
Arg. of periapsis
173.2174°
True anomaly
186.90665°
Mean anomaly
186.9144°
Eccentric anomaly
186.91053°
Mean motion
3.83104 °/min
BSTAR
0.00031313
Orbital period
93.97 mins
Loading maneuver chart data...
Loading SW <> Apogee altitude chart data...
Loading historical data...
Loading historical data...
Loading historical data...
Loading historical data...
Loading historical data...
Loading historical data...
Loading historical data...
Other satellites on launch #74 in the year 2017 (2017-11-21 UTC)

JILIN-01-04 Visibility forecast

Observer location: undefined°, undefined°

Span
Click to sort rows by Start time (UTC) header in descending order
Start Az.
Max El. time (UTC)
Max El. Az.
Max El.
End time (UTC)
End Az.
4 mins2025-05-13 20:01:06.824Z334.518° NNW2025-05-13 20:03:06.824Z284.572° WNW24°2025-05-13 20:05:06.824Z239.048° WSW
5 mins2025-05-14 06:34:06.824Z168.66° S2025-05-14 06:36:06.824Z215.684° SW44.94°2025-05-14 06:39:06.824Z347.156° N
|